Location: Walton
(43.6794°N, 81.3017°W)
Time: 00:35:51
(UTC+00:00)

Cosmos 2180 Rocket - Pass Details

Date: 11 March 2026
Orbit: 952 x 1004 km, 82.9° (Epoch: 14 April)

Event Time Altitude Azimuth Distance (km) Brightness Sun altitude
Rises 10:59:45 0° 149° (SSE) 3,687 7.9 -8.9°
Reaches altitude 10° 11:02:43 10° 136° (SE) 2,735 7.5 -8.4°
Maximum altitude 11:07:37 25° 84° (E) 1,872 7.2 -7.5°
Drops below altitude 10° 11:12:29 10° 32° (NNE) 2,721 7.3 -6.6°
Sets 11:15:25 0° 20° (NNE) 3,664 7.8 -6.1°
